Hourly Data Report for January 17, 2013

BAGOTVILLE A
QUEBEC

48°20'00.000" N
71°00'00.000" W
159.10 m
7060400
71727
YBG

Download Data

Hourly Data (January 2013)
Hourly Data Report for January 17, 2013
TIME
LST
Temp Definition
°C
Dew Point Definition
°C
Rel Hum Definition
%
Precip. Amount Definition
mm

Wind Dir Definition
10's deg

Wind Spd Definition
km/h
Visibility Definition
km
Stn Press Definition
kPa
Hmdx Definition


Wind Chill Definition


Weather Definition


00:00 -2.5 -7.4 69   21 15 32.2 98.10   -7 Cloudy
01:00 -0.7 -7.7 59   24 17 24.1 98.06   -6 Cloudy
02:00 -0.5 -6.7 63   23 30 24.1 97.99   -7 Snow Showers
03:00 -0.2 -6.6 62   24 28 24.1 97.96   -7 Snow Showers
04:00 -2.6 -7.2 71   29 57 0.8 98.26   -12 Snow,Blowing Snow
05:00 -10.0 -12.0 85   29 43 0.8 98.57   -21 Snow,Blowing Snow
06:00 -16.0 -19.0 78   28 43 1.2 98.91   -29 Snow,Blowing Snow
07:00 -18.1 -32.1 28   30 39 1.2 99.19   -31 Snow,Blowing Snow
08:00 -20.3 -24.2 71   28 43 3.2 99.44   -35 Blowing Snow
09:00 -21.3 -25.4 69   31 35 12.9 99.58   -35 Mainly Clear
10:00 -21.7 -26.9 63   30 35 24.1 99.68   -36 Mainly Clear
11:00 -22.7 -27.1 67   29 37 4.8 99.80   -37 Blowing Snow
12:00 -22.9 -27.4 67   29 37 12.9 99.87   -38 Mostly Cloudy
13:00 -23.3 -29.1 59   29 30 24.1 99.94   -37 Mainly Clear
14:00 -23.2 -28.9 60   30 28 32.2 100.02   -36 Clear
15:00 -23.1 -27.6 67   30 26 40.2 100.11   -36 Clear
16:00 -23.4 -26.9 73   29 17 40.2 100.14   -34 Clear
17:00 -24.5 -28.2 71   29 6 24.1 100.19   -30 Clear
18:00 -24.7 -28.5 71   29 7 24.1 100.21   -31 Clear
19:00 -27.7 -32.0 67   21 7 24.1 100.24   -35 Clear
20:00 -28.0 -32.4 66   20 11 24.1 100.27   -37 Clear
21:00 -28.1 -32.5 66   20 7 24.1 100.32   -35 Clear
22:00 -29.4 -36.1 52   20 7 24.1 100.29   -37 Clear
23:00 -29.3 -36.0 52   22 6 24.1 100.27   -36 Clear

Notes on Data Quality.

Legend

  • E = Estimated
  • M = Missing
  • NA = Not Available*
  • [empty] = Indicates an unobserved value
Date modified: